www.pogodaiklimat.ru

Погода и климат >> Архив погоды >> Австрия >> Альбершвенде


ПОГОДА в Альбершвенде

  • Прогноз погоды в Альбершвенде
  • Монитор погоды в Альбершвенде

АРХИВ ПОГОДЫ в Альбершвенде

Время (UTC), дата Ветер
(напр.,м/с)
 
Видим.   Явления Облачность Т
(С)
Тd
(С)
f
(%)
Тe
(С)
Тes
(С)
Комфортность P
(гПа)
Po
(гПа)
Тmin
(С)
Tmax
(С)
R
(мм)
R24
(мм)
S
(см)
10 10.08 ЮЗ 3 н/о в посл. час осадки н/о +17.5 +15.0 85 +18 +18 1019.4 938.4 0.1
11 10.08 Ю 2 н/о осадки н/о +15.5 +12.9 84 +15 +15 1020.4 938.7 0.3
12 10.08 СЗ 1 н/о осадки {ливн. осадки} н/о +15.9 +14.6 92 +17 +17 1019.7 938.2 11
13 10.08 В 2 н/о в посл. час осадки н/о +17.9 +15.0 83 +18 +18 1018.6 937.7 0.3
14 10.08 СВ 1 н/о н/о +19.0 +15.9 82 +21 +21 комфорт 1018.1 937.6
15 10.08 С 1 н/о {осадки} н/о +19.7 +16.4 81 +23 +23 комфорт 1017.8 937.5 0.3
16 10.08 штиль 0 н/о н/о +19.7 +16.8 83 +22 +22 комфорт 1017.9 937.6
17 10.08 ЮЗ 1 н/о н/о +18.0 +11.0 64 +19 +19 1018.6 937.6
18 10.08 штиль 0 н/о {осадки} н/о +18.0 +11.6 66 +18 +18 1018.5 937.6 +15.2 +20.3 11
19 10.08 ЮЗ 1 н/о н/о +17.2 +12.6 74 +18 +18 1019.4 938.2
20 10.08 С 1 н/о н/о +16.7 +12.7 77 +18 +18 1020.0 938.6
21 10.08 штиль 0 н/о н/о +16.0 +11.8 76 +16 +16 1020.3 938.7
22 10.08 штиль 0 н/о н/о +15.6 +12.8 83 +15 +15 1020.4 938.7
23 10.08 штиль 0 н/о н/о +15.6 +13.0 85 +15 +15 1020.3 938.6
00 11.08 З 1 н/о н/о +15.2 +13.1 87 +16 +16 1020.3 938.5
01 11.08 З 1 н/о н/о +15.1 +13.3 89 +16 +16 1019.9 938.1
02 11.08 ЮЗ 1 н/о н/о +14.3 +12.6 90 +15 +15 1020.1 938.1
03 11.08 штиль 0 н/о н/о +13.4 +11.8 90 +13 +13 1020.2 937.9
04 11.08 Ю 1 н/о н/о +13.2 +11.7 91 +13 +13 1019.9 937.6
05 11.08 Ю 1 н/о н/о +13.0 +11.8 92 +13 +13 1019.7 937.3
06 11.08 СВ 1 н/о н/о +16.0 +13.0 82 +17 +17 1018.1 936.7 +12.8 +18.2
07 11.08 Ю 1 н/о н/о +18.2 +13.6 75 +20 +20 1017.1 936.4
08 11.08 СВ 1 н/о н/о +20.8 +14.3 66 +25 +25 комфорт 1015.5 935.6
09 11.08 штиль 0 н/о н/о +21.8 +14.8 64 +25 +25 комфорт 1014.6 935.1
10 11.08 С 1 н/о н/о +23.0 +13.8 56 +26 +26 жарко 1013.8 934.6
11 11.08 ЮВ 1 н/о н/о +23.5 +15.0 59 +26 +26 жарко 1012.6 933.7
12 11.08 СВ 1 н/о н/о +24.9 +15.6 56 +28 +28 жарко 1011.0 932.6
13 11.08 СВ 1 н/о н/о +26.0 +15.7 53 +29 +29 душно 1009.6 931.5
14 11.08 штиль 0 н/о н/о +27.0 +17.2 55 +31 +31 душно 1008.4 930.7
15 11.08 СВ 1 н/о н/о +27.8 +18.9 58 +33 +33 очень
душно
1006.9 929.6
16 11.08 С 1 н/о н/о +27.9 +18.1 55 +32 +32 душно 1005.4 928.2
17 11.08 З 4 н/о н/о +25.6 +18.3 64 +30 +30 душно 1007.4 929.5
18 11.08 З 7
{14}
н/о н/о +23.8 +16.6 64 +27 +27 жарко 1010.4 931.8 +14.6 +28.1
19 11.08 З 5
{14}
н/о осадки н/о +19.0 +17.6 92 +20 +20 1014.6 934.4 0.8
20 11.08 ЮЗ 3 н/о н/о +16.9 +15.9 94 +17 +17 1016.5 935.6 10
21 11.08 З 1
{14}
н/о в посл. час осадки н/о +17.1 +16.1 94 +18 +18 1016.4 935.5 13
22 11.08 ЮВ 1 н/о в посл. час осадки н/о +17.1 +16.3 95 +18 +18 1016.0 935.2 0.2
23 11.08 ЮЗ 1 н/о ливневой дождь н/о +16.9 +16.3 96 +18 +18 1016.8 935.9 0.2
00 12.08 С 1
{14}
н/о {ливн. осадки} н/о +16.9 +16.2 96 +18 +18 1016.4 935.5 14
01 12.08 З 2 н/о н/о +16.8 +16.1 96 +17 +17 1016.2 935.3
02 12.08 ЮЗ 2 н/о н/о +16.2 +15.4 95 +16 +16 1016.4 935.3
03 12.08 З 1 н/о осадки н/о +15.8 +15.1 96 +16 +16 1017.1 935.8 0.1
04 12.08 СЗ 1 н/о в посл. час осадки н/о +15.4 +14.5 94 +16 +16 1017.0 935.6 0.2
05 12.08 ЮЗ 1 н/о осадки н/о +15.1 +14.3 95 +16 +16 1016.8 935.3 0.3
06 12.08 СВ 1
{14}
н/о ливневой дождь н/о +15.5 +14.7 95 +16 +16 1016.6 935.2 +15.1 +23.9 15
07 12.08 СВ 1 н/о осадки н/о +15.4 +14.7 96 +16 +16 1016.0 934.7 2
08 12.08 СЗ 1 н/о в посл. час осадки н/о +15.2 +14.7 97 +16 +16 1016.7 935.3 2
09 12.08 СВ 2 н/о осадки н/о +15.3 +14.7 96 +15 +15 1016.6 935.2 6
10 12.08 С 1 н/о осадки н/о +15.8 +15.2 96 +16 +16 1016.6 935.3 5
11 12.08 Ю 1 н/о осадки н/о +14.9 +13.6 92 +15 +15 1017.4 935.8 5
12 12.08 В 2 н/о {ливн. осадки} н/о +14.7 +13.6 93 +14 +14 1017.7 936.0 21
13 12.08 З 1 н/о в посл. час осадки н/о +15.7 +14.3 91 +16 +16 1016.6 935.3 2
14 12.08 СВ 2 н/о н/о +17.4 +15.3 87 +18 +18 1014.3 933.7
15 12.08 З 2 н/о {осадки} н/о +16.6 +15.0 90 +17 +17 1015.0 934.1 2
16 12.08 В 1 н/о н/о +15.1 +13.4 90 +16 +16 1015.8 934.4 6
17 12.08 Ю 1 н/о в посл. час осадки н/о +14.8 +13.3 91 +15 +15 1016.0 934.5 1
18 12.08 Ю 2 н/о ливневой дождь н/о +15.1 +13.9 93 +15 +15 1016.6 935.1 +14.3 +17.7 31
19 12.08 Ю 1 н/о осадки н/о +14.8 +13.8 94 +15 +15 1017.1 935.5 1
20 12.08 ЮЗ 1 н/о осадки н/о +14.0 +12.1 88 +14 +14 1018.7 936.7 2
21 12.08 ЮЗ 1 н/о осадки н/о +14.1 +12.7 91 +14 +14 1019.6 937.6 5
22 12.08 Ю 2 н/о в посл. час осадки н/о +14.1 +11.1 82 +14 +14 1019.8 937.7 0.4
23 12.08 ЮЗ 1 н/о н/о +13.9 +11.7 87 +14 +14 1019.8 937.7 0.0
00 13.08 ЮЗ 2 н/о в посл. час осадки н/о +13.4 +12.1 92 +13 +13 1020.0 937.7 8
01 13.08 Ю 1 н/о в посл. час осадки н/о +13.1 +11.1 88 +13 +13 1019.9 937.5 0.1
02 13.08 Ю 1 н/о н/о +12.6 +11.1 91 +13 +13 1019.8 937.3
03 13.08 В 1 н/о {осадки} н/о +12.2 +11.4 95 +12 +12 1019.6 937.0 0.1
04 13.08 Ю 1 н/о н/о +11.7 +10.3 91 +11 +11 1019.8 937.0 0.0
05 13.08 штиль 0 н/о н/о +11.8 +10.9 94 +11 +11 1020.2 937.4
06 13.08 штиль 0 н/о {осадки} н/о +12.4 +11.4 94 +12 +12 1020.3 937.7 +11.6 +15.1 8
07 13.08 СЗ 1 н/о н/о +14.1 +11.7 85 +14 +14 1020.2 938.1
08 13.08 С 1 н/о н/о +15.9 +13.3 85 +17 +17 1019.6 938.1
09 13.08 З 3 н/о н/о +15.8 +10.9 73 +15 +15 1019.7 938.1
10 13.08 ЮЗ 2 н/о н/о +15.9 +10.3 69 +16 +16 1019.4 937.8
11 13.08 З 2 н/о н/о +15.8 +10.3 70 +16 +16 1019.3 937.7
12 13.08 ЮЗ 3 н/о н/о +15.7 +10.2 70 +15 +15 1019.2 937.6
13 13.08 ЮЗ 3 н/о н/о +16.1 +10.3 68 +16 +16 1018.5 937.0 0.0
14 13.08 З 2 н/о н/о +15.9 +8.2 60 +16 +16 1018.4 936.8
15 13.08 З 1 н/о н/о +15.8 +7.7 59 +17 +17 1018.2 936.6 0.0
16 13.08 Ю 1 н/о н/о +15.7 +8.9 64 +16 +16 1018.3 936.7
17 13.08 Ю 1 н/о н/о +15.7 +9.6 67 +16 +16 1018.2 936.6
18 13.08 ЮЗ 1 н/о н/о +14.9 +9.9 72 +15 +15 1018.6 936.8 +12.2 +16.6 0.0
19 13.08 СЗ 1 н/о н/о +14.2 +11.1 82 +15 +15 1019.0 937.0 0.0
20 13.08 штиль 0 н/о в посл. час осадки н/о +13.8 +10.5 80 +13 +13 1019.7 937.5 0.0
21 13.08 ЮЗ 1 н/о {осадки} н/о +13.6 +10.4 81 +14 +14 1019.9 937.6 0.0
22 13.08 ЮЗ 3 н/о н/о +13.5 +10.6 83 +12 +12 1020.1 937.8
23 13.08 ЮЗ 1 н/о н/о +13.3 +10.7 84 +13 +13 1020.3 937.9
00 14.08 ЮЗ 1 н/о {осадки} н/о +11.9 +10.2 89 +12 +12 1020.7 937.9 0.0
01 14.08 Ю 2 н/о н/о +11.8 +9.1 84 +11 +11 1020.8 937.9
02 14.08 штиль 0 н/о н/о +10.8 +8.9 88 +10 +10 1021.1 937.9
03 14.08 В 1 н/о н/о +10.2 +8.6 90 +10 +10 1021.1 937.8
04 14.08 штиль 0 н/о н/о +10.3 +9.0 92 +10 +10 1020.9 937.6
05 14.08 Ю 1 н/о н/о +9.8 +8.8 93 +9 +9 1021.3 937.8
06 14.08 С 1 н/о н/о +12.0 +10.2 89 +12 +12 1020.6 937.8 +9.6 +15.0 0.0
07 14.08 С 1 н/о н/о +13.8 +10.5 80 +14 +14 1020.3 938.1
08 14.08 ЮЗ 2 н/о н/о +14.5 +10.6 77 +14 +14 1020.1 938.1
09 14.08 штиль 0 н/о н/о +16.2 +9.0 62 +16 +16 1019.7 938.1
10 14.08 ЮЗ 1 н/о н/о +17.0 +7.6 54 +18 +18 1019.3 937.9
11 14.08 С 1 н/о н/о +18.2 +8.4 53 +19 +19 1018.9 937.9
12 14.08 ЮЗ 1 н/о н/о +18.0 +5.9 45 +19 +19 1018.6 937.5
13 14.08 СЗ 2 н/о н/о +19.0 +8.2 49 +20 +20 1017.7 937.0
14 14.08 СЗ 2 н/о н/о +18.9 +5.4 41 +20 +20 1017.6 936.8
15 14.08 З 1 н/о н/о +19.5 +6.9 44 +21 +21 комфорт 1017.0 936.5
16 14.08 З 1 н/о н/о +19.3 +5.4 40 +21 +21 комфорт 1016.9 936.3
17 14.08 СЗ 1 н/о н/о +19.3 +6.4 43 +21 +21 комфорт 1016.5 935.9
18 14.08 штиль 0 н/о н/о +18.4 +7.7 50 +19 +19 1016.7 935.9 +11.6 +19.9
19 14.08 ЮВ 2 н/о н/о +15.5 +7.5 59 +15 +15 1017.5 935.9
20 14.08 штиль 0 н/о н/о +12.9 +8.0 72 +13 +13 1018.6 936.2
21 14.08 Ю 1 н/о н/о +12.3 +7.8 74 +12 +12 1018.8 936.2
22 14.08 Ю 1 н/о н/о +11.2 +7.8 80 +11 +11 1018.9 936.0
23 14.08 ЮЗ 1 н/о н/о +10.6 +7.8 83 +10 +10 1019.0 935.9
00 15.08 ЮЗ 1 н/о н/о +10.0 +7.7 86 +10 +10 1018.7 935.5
01 15.08 штиль 0 н/о н/о +9.3 +7.3 87 +9 +9 1018.7 935.3
02 15.08 ЮЗ 1 н/о н/о +8.9 +7.1 88 +8 +8 1018.9 935.3
03 15.08 штиль 0 н/о н/о +8.6 +7.1 90 +8 +8 1018.2 934.6
04 15.08 штиль 0 н/о н/о +9.1 +7.4 89 +8 +8 1017.8 934.4
05 15.08 ЮЗ 1 н/о н/о +9.0 +7.3 89 +8 +8 1017.9 934.5
06 15.08 штиль 0 н/о н/о +11.0 +8.5 85 +10 +10 1017.2 934.4 +8.3 +19.3
07 15.08 штиль 0 н/о н/о +15.1 +9.4 69 +15 +15 1016.1 934.5
08 15.08 СЗ 1 н/о н/о +14.9 +10.1 73 +15 +15 1016.2 934.6
09 15.08 З 1 н/о н/о +16.4 +11.9 75 +17 +17 1015.7 934.6 0.0
10 15.08 ЮЗ 2 н/о н/о +19.0 +10.1 56 +20 +20 1014.9 934.5
11 15.08 З 3 н/о в посл. час осадки н/о +19.0 +9.9 56 +20 +20 1015.3 934.8 0.0
12 15.08 штиль 0 н/о осадки н/о +15.1 +12.2 83 +15 +15 1016.9 935.3 2
13 15.08 СВ 2 н/о н/о +16.6 +13.5 82 +17 +17 1015.8 934.8 0.0
14 15.08 З 1 н/о осадки н/о +15.8 +13.3 85 +16 +16 1016.6 935.3 2
15 15.08 Ю 2 н/о в посл. час осадки н/о +14.9 +12.5 86 +15 +15 1017.1 935.5 5
16 15.08 штиль 0 н/о н/о +16.9 +13.5 80 +17 +17 1015.9 934.9 0.0
17 15.08 СЗ 1 н/о н/о +17.9 +14.8 82 +19 +19 1015.4 934.8
18 15.08 З 1 н/о осадки н/о +15.7 +13.9 89 +16 +16 1016.8 935.5 +10.6 +19.1 7
19 15.08 Ю 2 н/о в посл. час осадки н/о +15.1 +12.1 82 +15 +15 1018.4 936.7 1
20 15.08 штиль 0 н/о н/о +14.6 +12.7 88 +14 +14 1019.3 937.4 0.0
21 15.08 СВ 1 н/о {осадки} н/о +14.0 +13.1 94 +14 +14 1020.0 937.9 1
22 15.08 ЮЗ 2 н/о н/о +14.7 +11.3 80 +14 +14 1020.2 938.2
23 15.08 ЮЗ 1 н/о н/о +14.8 +11.3 80 +15 +15 1020.1 938.2 0.0
00 16.08 ЮЗ 4 н/о {осадки} н/о +15.0 +11.2 78 +14 +14 1020.0 938.1 1
01 16.08 З 3 н/о н/о +14.4 +11.1 81 +13 +13 1020.5 938.4
02 16.08 ЮЗ 2 н/о н/о +13.8 +11.1 84 +13 +13 1020.8 938.5
03 16.08 штиль 0 н/о н/о +13.2 +11.4 89 +13 +13 1020.9 938.5
04 16.08 СВ 1 н/о н/о +13.0 +11.8 92 +13 +13 1021.0 938.5 0.0
05 16.08 СВ 1 н/о осадки н/о +12.7 +11.9 95 +13 +13 1021.1 938.5 2
06 16.08 ЮЗ 1 н/о {осадки} н/о +13.2 +12.2 94 +13 +13 1020.9 938.5 +12.5 +16.8 3
07 16.08 штиль 0 н/о н/о +14.9 +12.9 88 +15 +15 1020.4 938.5
08 16.08 ЮЗ 2 н/о н/о +15.0 +11.8 81 +15 +15 1020.4 938.5
09 16.08 ЮЗ 1 н/о н/о +17.3 +10.4 64 +18 +18 1019.6 938.4 0.0
10 16.08 ЮЗ 2 н/о н/о +17.8 +10.5 62 +18 +18 1019.2 938.1
11 16.08 СЗ 1 н/о н/о +19.3 +11.3 60 +21 +21 комфорт 1018.3 937.7
12 16.08 С 1 н/о н/о +19.7 +8.5 48 +22 +22 комфорт 1017.5 937.0 0.0
13 16.08 С 1 н/о н/о +20.4 +10.0 51 +23 +23 комфорт 1016.7 936.5 0.0
14 16.08 С 1 н/о н/о +20.7 +9.8 50 +23 +23 комфорт 1016.1 936.0
15 16.08 СВ 1 н/о н/о +21.4 +10.1 48 +23 +23 комфорт 1015.1 935.3 0.0
16 16.08 СЗ 1 н/о н/о +21.6 +10.7 50 +23 +23 комфорт 1015.0 935.3
17 16.08 СЗ 1 н/о н/о +20.5 +9.9 51 +23 +23 комфорт 1014.9 934.9
18 16.08 ЮЗ 2 н/о н/о +18.6 +11.4 63 +20 +20 1015.7 935.1 +12.7 +21.7 0.0
19 16.08 ЮВ 1 н/о н/о +15.8 +10.2 69 +17 +17 1016.3 934.9
20 16.08 ЮЗ 1 н/о н/о +14.6 +10.0 74 +15 +15 1017.0 935.2
21 16.08 штиль 0 н/о н/о +13.6 +10.6 82 +13 +13 1017.3 935.3
22 16.08 ЮЗ 1 н/о н/о +13.6 +10.3 80 +14 +14 1017.2 935.2
23 16.08 Ю 1 н/о н/о +12.8 +10.6 86 +13 +13 1017.1 934.9
00 17.08 З 1 н/о н/о +12.1 +9.8 86 +12 +12 1017.1 934.6
01 17.08 ЮЗ 1 н/о н/о +11.7 +9.9 89 +11 +11 1017.2 934.6
02 17.08 Ю 1 н/о н/о +11.2 +9.7 90 +11 +11 1017.2 934.5
03 17.08 ЮЗ 1 н/о н/о +11.7 +9.8 88 +12 +12 1016.6 934.1
05 17.08 СВ 1 н/о н/о +12.7 +9.9 83 +13 +13 1016.3 934.1
06 17.08 СВ 1 н/о н/о +13.7 +9.7 77 +14 +14 1016.3 934.3 +11.0 +18.8
07 17.08 штиль 0 н/о н/о +15.5 +12.1 80 +15 +15 1016.0 934.6
08 17.08 З 1 н/о н/о +16.7 +13.1 79 +18 +18 1015.5 934.5
09 17.08 СВ 1 н/о н/о +18.8 +13.6 72 +21 +21 комфорт 1014.8 934.4 0.0

 

Местоположение метеостанции Альбершвенде (Австрия): широта 47.46 долгота 9.85 высота над уровнем моря 715 м.

В архиве по умолчанию представлена погода в Альбершвенде за последнюю неделю. Архивные данные за месяц целиком и за предыдущие месяцы, начиная с января 2011 года, Вы можете получить, выбрав интересующий диапазон дат из раскрывающегося списка и нажав кнопку "Ввод!".


*Определитесь, кто Вы:
робот инопланетянин человек

Внимание! Время в таблицах - всемирное. Для получения местного времени необходимо прибавить поправку, которая равна 1 ч.

Смотрите также архив погоды в соседних городах и на ближайших метеорологических станциях:

Погода в Брегенце (Австрия) (9 км)
Погода в Дорнбирне (Австрия) (10 км)
Погода в Санкт-Галлен-Альтенрайне (Швейцария) (22 км)
Погода в Фельдкирхе (Австрия) (27 км)
Погода в Оберстдорфе (Германия) (33 км)
Погода в Санкт-Галлене (Швейцария) (34 км)
Погода в Варте (Австрия) (34 км)
Погода в Херлацхофене (Германия) (40 км)
Погода на Зентисе (Швейцария) (44 км)
Погода в Вадуце (Лихтенштейн) (44 км)

Пояснения к столбцам:

Ветер - указаны скорость ветра в м/с - средняя за 10 мин, порывы в срок и между сроками (в фигурных скобках) и направление, откуда дует ветер: С - северный, СВ - северо-восточный, В - восточный, ЮВ - юго-восточный, Ю - южный, ЮЗ - юго-западный, З - западный, СЗ - северо-западный.
Видимость - горизонтальная дальность видимости в метрах или километрах. При видимости от 1 до 10 км при отсутствии осадков обычно наблюдается дымка, при ухудшении видимости до 1 км и менее - туман. В сухую погоду видимость может ухудшаться дымом, пылью или мглою.
Явления - указаны атмосферные явления, наблюдавшиеся в срок или в последний час перед сроком; фигурными скобками обозначены явления, наблюдавшиеся между сроками (за 1-3 часа до срока); квадратными скобками обозначены град или гололедные отложения с указанием их диаметра в мм.
Облачность - указаны через наклонную черту общая и нижняя облачность в баллах и высота нижней границы облаков в метрах; квадратными скобками обозначены формы облаков: Ci - перистые, Cs - перисто-слоистые, Cc - перисто-кучевые, Ac - высококучевые, As - высокослоистые, Sc - слоисто-кучевые, Ns - слоисто-дождевые, Cu - кучевые, Cb - кучево-дождевые. Подробнее классификацию облаков см. в Атласе облаков (PDF).
T - Температура воздуха - температура, измеренная на высоте 2 м над землей.
Td - Температура точки росы - температура, при понижении до которой содержащийся в воздухе водяной пар достигнет насыщения.
f - Относительная влажность воздуха - влажноcть воздуха, измеренная на высоте 2 м над землей.
Te - Эффективная температура - температура, которую ощущает одетый по сезону человек в тени. Характеристика душности погоды. При расчете учитывается влияние влажности воздуха и скорости ветра на теплоощущения человека.
Tes - Эффективная температура на солнце - температура, которую ощущает человек, с поправкой на солнечный нагрев. Характеристика знойности погоды. Зависит от высоты солнца над горизонтом, облачности и скорости ветра. Ночью, в пасмурную погоду, а также при ветре 12 м/с и более поправка равна нулю.
P - Атмосферное давление - приведенное к уровню моря атмосферное давление.
Po - Атмосферное давление - измеренное на уровне метеостанции атмосферное давление.
Tmin - Минимальная температура - минимум температуры воздуха на высоте 2 м над землей.
Tmax - Максимальная температура - максимум температуры воздуха на высоте 2 м над землей.
R - Количество осадков - Количество выпавших осадков за период времени, мм. При наведении курсора мыши на число - период времени, за который выпало указанное количество осадков.
R24 - Количество осадков - Количество выпавших осадков за 24 часа, мм.
S - Снежный покров - Высота снежного покрова, см. При наведении курсора мыши на число - состояние снежного покрова и степень покрытия местности в баллах.